Location: Elbart
(49.6135°N, 11.9134°E)
Time: 17:38:23
(UTC+00:00)

Cosmos 1850 Rocket - Pass Details

Date: 09 April 2020
Orbit: 754 x 786 km, 74.0° (Epoch: 28 May)

Event Time Altitude Azimuth Distance (km) Brightness Sun altitude
Exits shadow 20:24:24 18° 201° (SSW) 1,775 5.7 -21.6°
Maximum altitude 20:28:15 88° 113° (ESE) 762 3.9 -22.1°
Drops below altitude 10° 20:33:28 10° 24° (NNE) 2,292 6.7 -22.7°
Sets 20:35:50 0° 24° (NNE) 3,223 7.5 -22.9°
